This demonstration page uses our WeatherBlox Daily Observations layout. Learn more.

Left ArrowRight Arrow

Hourly Observations for September 14, 2019

Temp ( °F °C ) Dew Point ( °F °C ) Humidity (%) Winds ( mph kmh ) Pressure ( in mb ) Visibility ( mi km ) Precip ( " mm )
12:54 am 00:54 Clear 67 19.4 55 12.8 66 66 SSW 13 20 30.11 1020 10 16 0.00 0.00
1:54 am 01:54 Clear 67 19.4 55 12.8 66 66 SSW 10 17 30.11 1020 10 16 0.00 0.00
2:54 am 02:54 Clear 65 18.3 55 12.8 70 70 SSW 6 9 30.10 1019 10 16 0.00 0.00
3:54 am 03:54 Clear 63 17.2 55 12.8 76 76 SSW 6 9 30.10 1019 10 16 0.00 0.00
4:54 am 04:54 Clear 63 17.2 56 13.3 78 78 S 9 15 30.08 1019 10 16 0.00 0.00
5:54 am 05:54 Clear 66 18.9 58 14.4 75 75 S 13 20 30.06 1018 10 16 0.00 0.00
6:54 am 06:54 Clear 67 19.4 60 15.6 79 79 SSW 8 13 30.07 1018 10 16 0.00 0.00
7:54 am 07:54 Mostly Sunny 68 20 61 16.1 78 78 S 9 15 30.06 1018 10 16 0.00 0.00
8:54 am 08:54 Partly Cloudy 71 21.7 62 16.7 73 73 S 14 22 30.06 1018 10 16 0.00 0.00
9:54 am 09:54 Sunny 74 23.3 64 17.8 71 71 SSW 17 28 30.05 1018 10 16 0.00 0.00
10:54 am 10:54 Sunny 77 25 65 18.3 66 66 SSW 16 26 30.04 1017 10 16 0.00 0.00
11:54 am 11:54 Sunny 81 27.2 66 18.9 61 61 SSW 14 22 30.01 1016 10 16 0.00 0.00
12:54 pm 12:54 Sunny 82 27.8 68 20 63 63 S 17 28 30.01 1016 10 16 0.00 0.00
1:54 pm 13:54 Mostly Sunny 83 28.3 68 20 61 61 S 18 30 29.99 1016 10 16 0.00 0.00
2:54 pm 14:54 Mostly Cloudy 84 28.9 68 20 59 59 SSW 16 26 29.97 1015 10 16 0.00 0.00
3:54 pm 15:54 Mostly Cloudy 87 30.6 69 20.6 55 55 S 17 28 29.95 1014 10 16 0.00 0.00
4:54 pm 16:54 Mostly Cloudy 85 29.4 69 20.6 59 59 S 12 19 29.93 1014 10 16 0.00 0.00
5:54 pm 17:54 Mostly Sunny 86 30 69 20.6 57 57 S 15 24 29.91 1013 10 16 0.00 0.00
6:54 pm 18:54 Sunny 84 28.9 69 20.6 61 61 S 9 15 29.91 1013 10 16 0.00 0.00
7:54 pm 19:54 Mostly Clear 80 26.7 70 21.1 71 71 S 8 13 29.91 1013 10 16 0.00 0.00
8:54 pm 20:54 Clear 79 26.1 70 21.1 74 74 S 10 17 29.91 1013 10 16 0.00 0.00
9:54 pm 21:54 Mostly Clear 77 25 69 20.6 77 77 S 9 15 29.93 1013 10 16 0.00 0.00
10:54 pm 22:54 Clear 78 25.6 68 20 71 71 S 12 19 29.92 1013 10 16 0.00 0.00
11:54 pm 23:54 Partly Cloudy 79 26.1 68 20 69 69 SSW 10 17 29.92 1013 10 16 0.00 0.00

Powered by AerisWeather